Terminal Aerodrome Forecast
Issued by NWS Knoxville/Tri Cities, TN

Home | Current Version | Previous Version | Text Only | Print | Product List | Glossary On
Versions: 1 2 3 4 5 6 7 8 9 10 11 12 13 14 15 16 17 18 19 20 21 22 23 24 25 26 27 28 29 30 31 32 33 34 35 36 37 38 39 40 41 42 43 44 45
000
FTUS44 KMRX 070526
TAFTRI
TAF
KTRI 070526Z 0706/0806 00000KT 3SM BR SCT015
     FM070800 00000KT 2SM BR SCT008
     FM070900 00000KT 1 1/2SM BR BKN008
     FM071230 00000KT 4SM BR BKN020
     FM071400 22004KT P6SM SCT030 SCT070
     FM071800 23010KT P6SM SCT045 SCT080
     FM080100 VRB02KT P6SM FEW050 SCT150=

USA.gov is the U.S. government's official web portal to all federal, state and local government web resources and services.